Time,TemperatureF,DewpointF,PressureIn,WindDirection,WindDirectionDegrees,WindSpeedMPH,WindSpeedGustMPH,Humidity,HourlyPrecipIn,Conditions,Clouds,dailyrainin,SoftwareType,DateUTC
2013-02-23 00:03:00,24.7,5.8,29.84,North,0,0.0,0.0,44,0.00,,,0.00,WUHU216HW,2013-02-23 07:03:00,
2013-02-23 00:08:00,24.5,5.6,29.84,North,0,0.0,0.0,44,0.00,,,0.00,WUHU216HW,2013-02-23 07:08:00,
2013-02-23 00:13:00,24.1,5.2,29.84,North,0,0.0,0.0,44,0.00,,,0.00,WUHU216HW,2013-02-23 07:13:00,
2013-02-23 00:18:00,23.6,4.8,29.84,North,0,0.0,0.0,44,0.00,,,0.00,WUHU216HW,2013-02-23 07:18:00,
2013-02-23 00:23:00,23.4,5.6,29.84,North,0,0.0,0.0,46,0.00,,,0.00,WUHU216HW,2013-02-23 07:23:00,
2013-02-23 00:28:00,23.2,6.0,29.83,North,0,0.0,0.0,47,0.00,,,0.00,WUHU216HW,2013-02-23 07:28:00,
2013-02-23 00:33:00,23.0,5.8,29.83,North,0,0.0,0.0,47,0.00,,,0.00,WUHU216HW,2013-02-23 07:33:00,
2013-02-23 00:38:00,22.9,5.6,29.83,North,0,0.0,0.0,47,0.00,,,0.00,WUHU216HW,2013-02-23 07:38:00,
2013-02-23 00:43:00,22.7,5.0,29.83,North,0,0.0,0.0,46,0.00,,,0.00,WUHU216HW,2013-02-23 07:43:00,
2013-02-23 00:53:00,22.5,5.2,29.82,North,0,0.0,0.0,47,0.00,,,0.00,WUHU216HW,2013-02-23 07:53:00,
2013-02-23 00:58:00,22.1,5.3,29.82,North,0,0.0,0.0,48,0.00,,,0.00,WUHU216HW,2013-02-23 07:58:00,
2013-02-23 01:03:00,22.0,5.7,29.82,North,0,0.0,0.0,49,0.00,,,0.00,WUHU216HW,2013-02-23 08:03:00,
2013-02-23 01:08:00,21.8,5.5,29.82,North,0,0.0,0.0,49,0.00,,,0.00,WUHU216HW,2013-02-23 08:08:00,
2013-02-23 01:13:00,21.2,5.0,29.82,North,0,0.0,0.0,49,0.00,,,0.00,WUHU216HW,2013-02-23 08:13:00,
2013-02-23 01:18:00,21.1,5.2,29.82,North,0,0.0,0.0,50,0.00,,,0.00,WUHU216HW,2013-02-23 08:18:00,
2013-02-23 01:23:00,20.7,5.3,29.82,North,0,0.0,0.0,51,0.00,,,0.00,WUHU216HW,2013-02-23 08:23:00,
2013-02-23 01:28:00,20.5,5.1,29.82,North,0,0.0,0.0,51,0.00,,,0.00,WUHU216HW,2013-02-23 08:28:00,
2013-02-23 01:33:00,20.7,5.3,29.81,North,0,0.0,0.0,51,0.00,,,0.00,WUHU216HW,2013-02-23 08:33:00,
2013-02-23 01:38:00,20.9,5.5,29.81,North,0,0.0,0.0,51,0.00,,,0.00,WUHU216HW,2013-02-23 08:38:00,
2013-02-23 01:43:00,20.7,5.3,29.81,North,0,0.0,0.0,51,0.00,,,0.00,WUHU216HW,2013-02-23 08:43:00,
2013-02-23 01:48:00,20.5,5.1,29.81,North,0,0.0,0.0,51,0.00,,,0.00,WUHU216HW,2013-02-23 08:48:00,
2013-02-23 01:53:00,20.5,5.6,29.80,North,0,0.0,0.0,52,0.00,,,0.00,WUHU216HW,2013-02-23 08:53:00,
2013-02-23 01:58:00,20.7,5.8,29.81,North,0,0.0,0.0,52,0.00,,,0.00,WUHU216HW,2013-02-23 08:58:00,
2013-02-23 02:03:00,20.9,6.3,29.80,North,0,0.0,0.0,53,0.00,,,0.00,WUHU216HW,2013-02-23 09:03:00,
2013-02-23 02:08:00,21.2,6.2,29.81,North,0,0.0,0.0,52,0.00,,,0.00,WUHU216HW,2013-02-23 09:08:00,
2013-02-23 02:13:00,21.6,6.6,29.80,North,0,0.0,0.0,52,0.00,,,0.00,WUHU216HW,2013-02-23 09:13:00,
2013-02-23 02:18:00,21.4,6.4,29.80,North,0,0.0,0.0,52,0.00,,,0.00,WUHU216HW,2013-02-23 09:18:00,
2013-02-23 02:23:00,21.4,6.4,29.79,North,0,0.0,0.0,52,0.00,,,0.00,WUHU216HW,2013-02-23 09:23:00,
2013-02-23 02:28:00,21.2,6.2,29.79,North,0,0.0,0.0,52,0.00,,,0.00,WUHU216HW,2013-02-23 09:28:00,
2013-02-23 02:33:00,21.2,6.2,29.79,North,0,0.0,0.0,52,0.00,,,0.00,WUHU216HW,2013-02-23 09:33:00,
2013-02-23 02:38:00,21.1,6.0,29.79,North,0,0.0,0.0,52,0.00,,,0.00,WUHU216HW,2013-02-23 09:38:00,
2013-02-23 02:43:00,20.9,6.3,29.79,North,0,0.0,0.0,53,0.00,,,0.00,WUHU216HW,2013-02-23 09:43:00,
2013-02-23 02:48:00,20.7,6.9,29.78,North,0,0.0,0.0,55,0.00,,,0.00,WUHU216HW,2013-02-23 09:48:00,
2013-02-23 02:53:00,20.5,6.8,29.78,North,0,0.0,0.0,55,0.00,,,0.00,WUHU216HW,2013-02-23 09:53:00,
2013-02-23 02:58:00,20.2,6.5,29.78,North,0,0.0,0.0,55,0.00,,,0.00,WUHU216HW,2013-02-23 09:58:00,
2013-02-23 03:03:00,19.8,6.1,29.78,North,0,0.0,0.0,55,0.00,,,0.00,WUHU216HW,2013-02-23 10:03:00,
2013-02-23 03:08:00,19.8,6.1,29.78,North,0,0.0,0.0,55,0.00,,,0.00,WUHU216HW,2013-02-23 10:08:00,
2013-02-23 03:13:00,19.8,6.1,29.78,North,0,0.0,0.0,55,0.00,,,0.00,WUHU216HW,2013-02-23 10:13:00,
2013-02-23 03:18:00,19.8,7.8,29.78,North,0,0.0,0.0,59,0.00,,,0.00,WUHU216HW,2013-02-23 10:18:00,
2013-02-23 03:23:00,19.6,7.6,29.78,North,0,0.0,0.0,59,0.00,,,0.00,WUHU216HW,2013-02-23 10:23:00,
2013-02-23 03:28:00,19.8,8.1,29.78,North,0,0.0,0.0,60,0.00,,,0.00,WUHU216HW,2013-02-23 10:28:00,
2013-02-23 03:33:00,19.8,7.8,29.78,North,0,0.0,0.0,59,0.00,,,0.00,WUHU216HW,2013-02-23 10:33:00,
2013-02-23 03:38:00,19.8,7.8,29.77,North,0,0.0,0.0,59,0.00,,,0.00,WUHU216HW,2013-02-23 10:38:00,
2013-02-23 03:43:00,19.8,8.1,29.77,North,0,0.0,0.0,60,0.00,,,0.00,WUHU216HW,2013-02-23 10:43:00,
2013-02-23 03:48:00,19.8,8.1,29.77,North,0,0.0,0.0,60,0.00,,,0.00,WUHU216HW,2013-02-23 10:48:00,
2013-02-23 03:53:00,19.4,7.7,29.77,North,0,0.0,0.0,60,0.00,,,0.00,WUHU216HW,2013-02-23 10:53:00,
2013-02-23 03:58:00,18.9,7.3,29.77,North,0,0.0,0.0,60,0.00,,,0.00,WUHU216HW,2013-02-23 10:58:00,
2013-02-23 04:03:00,18.5,7.3,29.77,North,0,0.0,0.0,61,0.00,,,0.00,WUHU216HW,2013-02-23 11:03:00,
2013-02-23 04:08:00,18.4,7.5,29.77,North,0,0.0,0.0,62,0.00,,,0.00,WUHU216HW,2013-02-23 11:08:00,
2013-02-23 04:13:00,18.5,7.9,29.77,North,0,0.0,0.0,63,0.00,,,0.00,WUHU216HW,2013-02-23 11:13:00,
2013-02-23 04:18:00,19.1,8.8,29.76,North,0,0.0,0.0,64,0.00,,,0.00,WUHU216HW,2013-02-23 11:18:00,
2013-02-23 04:23:00,19.4,8.5,29.76,North,0,0.0,0.0,62,0.00,,,0.00,WUHU216HW,2013-02-23 11:23:00,
2013-02-23 04:28:00,19.6,8.3,29.76,North,0,0.0,0.0,61,0.00,,,0.00,WUHU216HW,2013-02-23 11:28:00,
2013-02-23 04:33:00,19.4,8.1,29.76,North,0,0.0,0.0,61,0.00,,,0.00,WUHU216HW,2013-02-23 11:33:00,
2013-02-23 04:38:00,19.8,8.5,29.75,North,0,0.0,0.0,61,0.00,,,0.00,WUHU216HW,2013-02-23 11:38:00,
2013-02-23 04:43:00,19.8,8.5,29.75,North,0,0.0,0.0,61,0.00,,,0.00,WUHU216HW,2013-02-23 11:43:00,
2013-02-23 04:48:00,20.0,8.3,29.75,North,0,0.0,0.0,60,0.00,,,0.00,WUHU216HW,2013-02-23 11:48:00,
2013-02-23 04:53:00,20.2,8.5,29.75,North,0,0.0,0.0,60,0.00,,,0.00,WUHU216HW,2013-02-23 11:53:00,
2013-02-23 04:58:00,19.8,8.1,29.75,North,0,0.0,0.0,60,0.00,,,0.00,WUHU216HW,2013-02-23 11:58:00,
2013-02-23 05:03:00,19.6,7.9,29.75,North,0,0.0,0.0,60,0.00,,,0.00,WUHU216HW,2013-02-23 12:03:00,
2013-02-23 05:08:00,19.1,7.7,29.75,North,0,0.0,0.0,61,0.00,,,0.00,WUHU216HW,2013-02-23 12:08:00,
2013-02-23 05:13:00,19.3,8.3,29.75,North,0,0.0,0.0,62,0.00,,,0.00,WUHU216HW,2013-02-23 12:13:00,
2013-02-23 05:18:00,19.3,7.9,29.75,North,0,0.0,0.0,61,0.00,,,0.00,WUHU216HW,2013-02-23 12:18:00,
2013-02-23 05:23:00,19.3,7.9,29.74,North,0,0.0,0.0,61,0.00,,,0.00,WUHU216HW,2013-02-23 12:23:00,
2013-02-23 05:28:00,19.4,8.5,29.75,North,0,0.0,0.0,62,0.00,,,0.00,WUHU216HW,2013-02-23 12:28:00,
2013-02-23 05:33:00,19.4,8.5,29.75,North,0,0.0,0.0,62,0.00,,,0.00,WUHU216HW,2013-02-23 12:33:00,
2013-02-23 05:38:00,19.3,8.7,29.75,North,0,0.0,0.0,63,0.00,,,0.00,WUHU216HW,2013-02-23 12:38:00,
2013-02-23 05:43:00,19.1,8.5,29.75,North,0,0.0,0.0,63,0.00,,,0.00,WUHU216HW,2013-02-23 12:43:00,
2013-02-23 05:48:00,18.9,8.7,29.75,North,0,0.0,0.0,64,0.00,,,0.00,WUHU216HW,2013-02-23 12:48:00,
2013-02-23 05:53:00,18.5,7.9,29.75,North,0,0.0,0.0,63,0.00,,,0.00,WUHU216HW,2013-02-23 12:53:00,
2013-02-23 05:58:00,18.2,7.7,29.74,North,0,0.0,0.0,63,0.00,,,0.00,WUHU216HW,2013-02-23 12:58:00,
2013-02-23 06:03:00,17.8,7.7,29.74,North,0,0.0,0.0,64,0.00,,,0.00,WUHU216HW,2013-02-23 13:03:00,
2013-02-23 06:08:00,17.6,8.2,29.75,North,0,0.0,0.0,66,0.00,,,0.00,WUHU216HW,2013-02-23 13:08:00,
2013-02-23 06:13:00,17.5,8.0,29.74,North,0,0.0,0.0,66,0.00,,,0.00,WUHU216HW,2013-02-23 13:13:00,
2013-02-23 06:18:00,17.1,8.0,29.74,North,0,0.0,0.0,67,0.00,,,0.00,WUHU216HW,2013-02-23 13:18:00,
2013-02-23 06:23:00,17.3,8.8,29.74,North,0,0.0,0.0,69,0.00,,,0.00,WUHU216HW,2013-02-23 13:23:00,
2013-02-23 06:28:00,17.1,8.6,29.74,North,0,0.0,0.0,69,0.00,,,0.00,WUHU216HW,2013-02-23 13:28:00,
2013-02-23 06:33:00,17.1,8.6,29.75,North,0,0.0,0.0,69,0.00,,,0.00,WUHU216HW,2013-02-23 13:33:00,
2013-02-23 06:38:00,16.9,8.8,29.75,North,0,0.0,0.0,70,0.00,,,0.00,WUHU216HW,2013-02-23 13:38:00,
2013-02-23 06:43:00,16.9,9.1,29.75,North,0,0.0,0.0,71,0.00,,,0.00,WUHU216HW,2013-02-23 13:43:00,
2013-02-23 06:48:00,16.9,9.1,29.75,North,0,0.0,0.0,71,0.00,,,0.00,WUHU216HW,2013-02-23 13:48:00,
2013-02-23 06:53:00,16.7,8.9,29.75,North,0,0.0,0.0,71,0.00,,,0.00,WUHU216HW,2013-02-23 13:53:00,
2013-02-23 06:58:00,16.7,8.9,29.75,North,0,0.0,0.0,71,0.00,,,0.00,WUHU216HW,2013-02-23 13:58:00,
2013-02-23 07:03:00,16.7,8.9,29.75,North,0,0.0,0.0,71,0.00,,,0.00,WUHU216HW,2013-02-23 14:03:00,
2013-02-23 07:08:00,16.9,9.5,29.75,North,0,0.0,0.0,72,0.00,,,0.00,WUHU216HW,2013-02-23 14:08:00,
2013-02-23 07:13:00,16.9,9.5,29.75,North,0,0.0,0.0,72,0.00,,,0.00,WUHU216HW,2013-02-23 14:13:00,
2013-02-23 07:18:00,17.1,9.6,29.75,North,0,0.0,0.0,72,0.00,,,0.00,WUHU216HW,2013-02-23 14:18:00,
2013-02-23 07:23:00,17.3,9.7,29.75,North,0,0.0,0.0,72,0.00,,,0.00,WUHU216HW,2013-02-23 14:23:00,
2013-02-23 07:28:00,17.3,9.7,29.75,North,0,0.0,0.0,72,0.00,,,0.00,WUHU216HW,2013-02-23 14:28:00,
2013-02-23 07:33:00,17.5,10.3,29.75,North,0,0.0,0.0,73,0.00,,,0.00,WUHU216HW,2013-02-23 14:33:00,
2013-02-23 07:38:00,17.8,10.9,29.76,North,0,0.0,0.0,74,0.00,,,0.00,WUHU216HW,2013-02-23 14:38:00,
2013-02-23 07:42:00,18.4,11.3,29.76,North,0,0.0,0.0,74,0.00,,,0.00,WUHU216HW,2013-02-23 14:42:00,
2013-02-23 07:47:00,18.9,11.9,29.76,North,0,0.0,0.0,74,0.00,,,0.00,WUHU216HW,2013-02-23 14:47:00,
2013-02-23 07:52:00,19.4,12.7,29.76,North,0,0.0,0.0,75,0.00,,,0.00,WUHU216HW,2013-02-23 14:52:00,
2013-02-23 07:57:00,20.5,13.1,29.77,North,0,0.0,0.0,73,0.00,,,0.00,WUHU216HW,2013-02-23 14:57:00,
2013-02-23 08:02:00,21.6,13.6,29.77,North,0,0.0,0.0,71,0.00,,,0.00,WUHU216HW,2013-02-23 15:02:00,
2013-02-23 08:07:00,22.5,13.9,29.77,North,0,0.0,0.0,69,0.00,,,0.00,WUHU216HW,2013-02-23 15:07:00,
2013-02-23 08:16:00,23.4,14.8,29.76,North,0,0.0,0.0,69,0.00,,,0.00,WUHU216HW,2013-02-23 15:16:00,
2013-02-23 08:24:00,24.8,14.3,29.77,North,0,0.0,0.0,64,0.00,,,0.00,WUHU216HW,2013-02-23 15:24:00,
2013-02-23 08:29:00,25.4,14.5,29.76,North,0,0.0,0.0,63,0.00,,,0.00,WUHU216HW,2013-02-23 15:29:00,
2013-02-23 08:34:00,25.9,14.3,29.77,North,0,0.0,0.0,61,0.00,,,0.00,WUHU216HW,2013-02-23 15:34:00,
2013-02-23 08:39:00,26.3,14.6,29.76,North,0,0.0,0.0,61,0.00,,,0.00,WUHU216HW,2013-02-23 15:39:00,
2013-02-23 08:44:00,27.0,14.9,29.76,North,0,0.0,0.0,60,0.00,,,0.00,WUHU216HW,2013-02-23 15:44:00,
2013-02-23 08:49:00,28.4,14.8,29.76,North,0,0.0,0.0,56,0.00,,,0.00,WUHU216HW,2013-02-23 15:49:00,
2013-02-23 08:54:00,29.2,14.6,29.76,North,0,0.0,0.0,54,0.00,,,0.00,WUHU216HW,2013-02-23 15:54:00,
2013-02-23 08:59:00,30.2,15.9,29.75,North,0,0.0,0.0,55,0.00,,,0.00,WUHU216HW,2013-02-23 15:59:00,
2013-02-23 09:04:00,31.7,16.5,29.76,North,0,0.0,0.0,53,0.00,,,0.00,WUHU216HW,2013-02-23 16:04:00,
2013-02-23 09:09:00,33.7,17.8,29.75,North,0,0.0,0.0,52,0.00,,,0.00,WUHU216HW,2013-02-23 16:09:00,
2013-02-23 09:14:00,35.8,15.4,29.75,North,0,0.0,0.0,43,0.00,,,0.00,WUHU216HW,2013-02-23 16:14:00,
2013-02-23 09:19:00,34.4,15.1,29.75,North,0,0.0,0.0,45,0.00,,,0.00,WUHU216HW,2013-02-23 16:19:00,
2013-02-23 09:24:00,35.6,15.8,29.74,North,0,0.0,0.0,44,0.00,,,0.00,WUHU216HW,2013-02-23 16:24:00,
2013-02-23 09:29:00,35.8,15.9,29.74,North,0,0.0,0.0,44,0.00,,,0.00,WUHU216HW,2013-02-23 16:29:00,
2013-02-23 09:34:00,34.6,15.3,29.74,North,0,0.0,0.0,45,0.00,,,0.00,WUHU216HW,2013-02-23 16:34:00,
2013-02-23 09:39:00,33.3,15.1,29.74,North,0,0.0,0.0,47,0.00,,,0.00,WUHU216HW,2013-02-23 16:39:00,
2013-02-23 09:44:00,33.1,14.9,29.74,North,0,0.0,0.0,47,0.00,,,0.00,WUHU216HW,2013-02-23 16:44:00,
2013-02-23 09:49:00,33.3,14.6,29.75,North,0,0.0,0.0,46,0.00,,,0.00,WUHU216HW,2013-02-23 16:49:00,
2013-02-23 09:54:00,33.5,15.3,29.75,North,0,0.0,0.0,47,0.00,,,0.00,WUHU216HW,2013-02-23 16:54:00,
2013-02-23 09:59:00,34.2,15.9,29.75,North,0,0.0,0.0,47,0.00,,,0.00,WUHU216HW,2013-02-23 16:59:00,
2013-02-23 10:04:00,35.6,16.3,29.75,North,0,0.0,0.0,45,0.00,,,0.00,WUHU216HW,2013-02-23 17:04:00,
2013-02-23 10:09:00,37.3,16.2,29.74,North,0,0.0,0.0,42,0.00,,,0.00,WUHU216HW,2013-02-23 17:09:00,
2013-02-23 10:14:00,38.7,18.0,29.74,North,0,0.0,0.0,43,0.00,,,0.00,WUHU216HW,2013-02-23 17:14:00,
2013-02-23 10:19:00,40.0,16.9,29.74,North,0,0.0,0.0,39,0.00,,,0.00,WUHU216HW,2013-02-23 17:19:00,
2013-02-23 10:24:00,40.5,17.4,29.74,North,0,0.0,0.0,39,0.00,,,0.00,WUHU216HW,2013-02-23 17:24:00,
2013-02-23 10:29:00,41.9,18.0,29.74,North,0,0.0,0.0,38,0.00,,,0.00,WUHU216HW,2013-02-23 17:29:00,
2013-02-23 10:34:00,42.8,17.5,29.74,North,0,0.0,0.0,36,0.00,,,0.00,WUHU216HW,2013-02-23 17:34:00,
2013-02-23 10:39:00,43.4,18.6,29.73,North,0,0.0,0.0,37,0.00,,,0.00,WUHU216HW,2013-02-23 17:39:00,
2013-02-23 10:44:00,43.7,17.6,29.74,North,0,0.0,0.0,35,0.00,,,0.00,WUHU216HW,2013-02-23 17:44:00,
2013-02-23 10:49:00,43.6,18.2,29.73,North,0,0.0,0.0,36,0.00,,,0.00,WUHU216HW,2013-02-23 17:49:00,
2013-02-23 10:54:00,43.9,16.5,29.73,North,0,0.0,0.0,33,0.00,,,0.00,WUHU216HW,2013-02-23 17:54:00,
2013-02-23 10:59:00,44.1,16.7,29.73,North,0,0.0,0.0,33,0.00,,,0.00,WUHU216HW,2013-02-23 17:59:00,
2013-02-23 11:04:00,43.4,16.0,29.73,North,0,0.0,0.0,33,0.00,,,0.00,WUHU216HW,2013-02-23 18:04:00,
2013-02-23 11:09:00,42.8,16.8,29.72,North,0,0.0,0.0,35,0.00,,,0.00,WUHU216HW,2013-02-23 18:09:00,
2013-02-23 11:14:00,42.3,16.4,29.72,North,0,0.0,0.0,35,0.00,,,0.00,WUHU216HW,2013-02-23 18:14:00,
2013-02-23 11:19:00,42.8,17.5,29.72,North,0,0.0,0.0,36,0.00,,,0.00,WUHU216HW,2013-02-23 18:19:00,
2013-02-23 11:24:00,43.2,16.5,29.72,North,0,0.0,0.0,34,0.00,,,0.00,WUHU216HW,2013-02-23 18:24:00,
2013-02-23 11:29:00,43.9,17.1,29.72,North,0,0.0,0.0,34,0.00,,,0.00,WUHU216HW,2013-02-23 18:29:00,
2013-02-23 11:34:00,44.6,18.5,29.71,North,0,0.0,0.0,35,0.00,,,0.00,WUHU216HW,2013-02-23 18:34:00,
2013-02-23 11:39:00,45.7,18.1,29.71,North,0,0.0,0.0,33,0.00,,,0.00,WUHU216HW,2013-02-23 18:39:00,
2013-02-23 11:44:00,47.0,19.3,29.71,North,0,0.0,0.0,33,0.00,,,0.00,WUHU216HW,2013-02-23 18:44:00,
2013-02-23 11:49:00,49.1,19.7,29.71,North,0,0.0,0.0,31,0.00,,,0.00,WUHU216HW,2013-02-23 18:49:00,
2013-02-23 11:54:00,49.9,17.8,29.71,North,0,0.0,0.0,28,0.00,,,0.00,WUHU216HW,2013-02-23 18:54:00,
2013-02-23 11:59:00,48.1,16.3,29.70,North,0,0.0,0.0,28,0.00,,,0.00,WUHU216HW,2013-02-23 18:59:00,
2013-02-23 12:04:00,47.0,16.3,29.70,North,0,0.0,0.0,29,0.00,,,0.00,WUHU216HW,2013-02-23 19:04:00,
2013-02-23 12:09:00,46.8,17.7,29.69,North,0,0.0,0.0,31,0.00,,,0.00,WUHU216HW,2013-02-23 19:09:00,
2013-02-23 12:14:00,47.2,17.4,29.69,North,0,0.0,0.0,30,0.00,,,0.00,WUHU216HW,2013-02-23 19:14:00,
2013-02-23 12:19:00,47.7,18.5,29.69,North,0,0.0,0.0,31,0.00,,,0.00,WUHU216HW,2013-02-23 19:19:00,
2013-02-23 12:24:00,47.7,17.9,29.69,North,0,0.0,0.0,30,0.00,,,0.00,WUHU216HW,2013-02-23 19:24:00,
2013-02-23 12:29:00,48.6,17.7,29.68,North,0,0.0,0.0,29,0.00,,,0.00,WUHU216HW,2013-02-23 19:29:00,
2013-02-23 12:34:00,49.5,17.6,29.68,North,0,0.0,0.0,28,0.00,,,0.00,WUHU216HW,2013-02-23 19:34:00,
2013-02-23 12:43:00,51.1,20.8,29.67,North,0,0.0,0.0,30,0.00,,,0.00,WUHU216HW,2013-02-23 19:43:00,
2013-02-23 12:48:00,50.6,20.3,29.66,North,0,0.0,0.0,30,0.00,,,0.00,WUHU216HW,2013-02-23 19:48:00,
2013-02-23 12:53:00,50.8,19.5,29.66,North,0,0.0,0.0,29,0.00,,,0.00,WUHU216HW,2013-02-23 19:53:00,
2013-02-23 12:58:00,50.8,20.4,29.66,North,0,0.0,0.0,30,0.00,,,0.00,WUHU216HW,2013-02-23 19:58:00,
2013-02-23 13:03:00,51.3,21.0,29.66,North,0,0.0,0.0,30,0.00,,,0.00,WUHU216HW,2013-02-23 20:03:00,
2013-02-23 13:08:00,51.7,20.4,29.66,North,0,0.0,0.0,29,0.00,,,0.00,WUHU216HW,2013-02-23 20:08:00,
2013-02-23 13:13:00,51.7,20.4,29.65,North,0,0.0,0.0,29,0.00,,,0.00,WUHU216HW,2013-02-23 20:13:00,
2013-02-23 13:18:00,52.0,20.6,29.65,North,0,0.0,0.0,29,0.00,,,0.00,WUHU216HW,2013-02-23 20:18:00,
2013-02-23 13:23:00,52.7,20.3,29.65,North,0,0.0,0.0,28,0.00,,,0.00,WUHU216HW,2013-02-23 20:23:00,
2013-02-23 13:28:00,53.3,21.8,29.65,North,0,0.0,0.0,29,0.00,,,0.00,WUHU216HW,2013-02-23 20:28:00,
2013-02-23 13:33:00,53.5,21.0,29.64,North,0,0.0,0.0,28,0.00,,,0.00,WUHU216HW,2013-02-23 20:33:00,
2013-02-23 13:38:00,53.5,21.0,29.64,North,0,0.0,0.0,28,0.00,,,0.00,WUHU216HW,2013-02-23 20:38:00,
2013-02-23 13:43:00,52.6,21.2,29.64,North,0,0.0,0.0,29,0.00,,,0.00,WUHU216HW,2013-02-23 20:43:00,
2013-02-23 13:48:00,51.7,20.4,29.64,North,0,0.0,0.0,29,0.00,,,0.00,WUHU216HW,2013-02-23 20:48:00,
2013-02-23 13:53:00,51.5,21.1,29.64,North,0,0.0,0.0,30,0.00,,,0.00,WUHU216HW,2013-02-23 20:53:00,
2013-02-23 13:58:00,51.5,21.1,29.64,North,0,0.0,0.0,30,0.00,,,0.00,WUHU216HW,2013-02-23 20:58:00,
2013-02-23 14:11:00,51.5,21.1,29.64,North,0,0.0,0.0,30,0.00,,,0.00,WUHU216HW,2013-02-23 21:11:00,
2013-02-23 14:16:00,51.5,21.8,29.64,North,0,0.0,0.0,31,0.00,,,0.00,WUHU216HW,2013-02-23 21:16:00,
2013-02-23 14:21:00,50.8,20.4,29.64,North,0,0.0,0.0,30,0.00,,,0.00,WUHU216HW,2013-02-23 21:21:00,
2013-02-23 14:26:00,50.6,21.0,29.64,North,0,0.0,0.0,31,0.00,,,0.00,WUHU216HW,2013-02-23 21:26:00,
2013-02-23 14:31:00,50.6,21.7,29.64,North,0,0.0,0.0,32,0.00,,,0.00,WUHU216HW,2013-02-23 21:31:00,
2013-02-23 14:36:00,50.8,21.8,29.64,North,0,0.0,0.0,32,0.00,,,0.00,WUHU216HW,2013-02-23 21:36:00,
2013-02-23 14:41:00,50.0,21.2,29.64,North,0,0.0,0.0,32,0.00,,,0.00,WUHU216HW,2013-02-23 21:41:00,
2013-02-23 14:46:00,48.6,24.7,29.64,North,0,0.0,0.0,39,0.00,,,0.00,WUHU216HW,2013-02-23 21:46:00,
2013-02-23 14:51:00,46.4,26.1,29.65,North,0,0.0,0.0,45,0.00,,,0.00,WUHU216HW,2013-02-23 21:51:00,
2013-02-23 14:56:00,45.4,27.3,29.64,North,0,0.0,0.0,49,0.00,,,0.00,WUHU216HW,2013-02-23 21:56:00,
2013-02-23 15:01:00,44.8,26.3,29.64,North,0,0.0,0.0,48,0.00,,,0.00,WUHU216HW,2013-02-23 22:01:00,
2013-02-23 15:11:00,44.8,27.4,29.64,North,0,0.0,0.0,50,0.00,,,0.00,WUHU216HW,2013-02-23 22:11:00,
2013-02-23 15:16:00,44.6,27.6,29.64,North,0,0.0,0.0,51,0.00,,,0.00,WUHU216HW,2013-02-23 22:16:00,
2013-02-23 15:21:00,44.5,27.0,29.65,North,0,0.0,0.0,50,0.00,,,0.00,WUHU216HW,2013-02-23 22:21:00,
2013-02-23 15:26:00,44.1,27.5,29.65,North,0,0.0,0.0,52,0.00,,,0.00,WUHU216HW,2013-02-23 22:26:00,
2013-02-23 15:31:00,43.2,27.2,29.65,North,0,0.0,0.0,53,0.00,,,0.00,WUHU216HW,2013-02-23 22:31:00,
2013-02-23 15:36:00,42.7,27.5,29.65,North,0,0.0,0.0,55,0.00,,,0.00,WUHU216HW,2013-02-23 22:36:00,
2013-02-23 15:46:00,40.7,25.7,29.65,North,0,0.0,0.0,55,0.00,,,0.00,WUHU216HW,2013-02-23 22:46:00,
2013-02-23 15:56:00,40.3,25.7,29.66,North,0,0.0,0.0,56,0.00,,,0.00,WUHU216HW,2013-02-23 22:56:00,
2013-02-23 16:01:00,40.0,25.4,29.65,North,0,0.0,0.0,56,0.00,,,0.00,WUHU216HW,2013-02-23 23:01:00,
2013-02-23 16:06:00,40.0,25.4,29.65,North,0,0.0,0.0,56,0.00,,,0.00,WUHU216HW,2013-02-23 23:06:00,
2013-02-23 16:11:00,40.0,25.0,29.65,North,0,0.0,0.0,55,0.00,,,0.00,WUHU216HW,2013-02-23 23:11:00,
2013-02-23 16:16:00,39.6,24.7,29.65,North,0,0.0,0.0,55,0.00,,,0.00,WUHU216HW,2013-02-23 23:16:00,
2013-02-23 16:21:00,39.2,24.8,29.65,North,0,0.0,0.0,56,0.00,,,0.00,WUHU216HW,2013-02-23 23:21:00,
2013-02-23 16:26:00,39.1,25.0,29.66,North,0,0.0,0.0,57,0.00,,,0.00,WUHU216HW,2013-02-23 23:26:00,
2013-02-23 16:31:00,38.9,24.4,29.65,North,0,0.0,0.0,56,0.00,,,0.00,WUHU216HW,2013-02-23 23:31:00,
2013-02-23 16:36:00,38.5,24.1,29.65,North,0,0.0,0.0,56,0.00,,,0.00,WUHU216HW,2013-02-23 23:36:00,
2013-02-23 16:41:00,38.3,24.4,29.65,North,0,0.0,0.0,57,0.00,,,0.00,WUHU216HW,2013-02-23 23:41:00,
2013-02-23 16:46:00,38.2,24.7,29.65,North,0,0.0,0.0,58,0.00,,,0.00,WUHU216HW,2013-02-23 23:46:00,
2013-02-23 16:51:00,37.8,24.3,29.64,North,0,0.0,0.0,58,0.00,,,0.00,WUHU216HW,2013-02-23 23:51:00,
2013-02-23 16:56:00,37.4,24.4,29.64,North,0,0.0,0.0,59,0.00,,,0.00,WUHU216HW,2013-02-23 23:56:00,
2013-02-23 17:01:00,36.7,24.2,29.64,North,0,0.0,0.0,60,0.00,,,0.00,WUHU216HW,2013-02-24 00:01:00,
2013-02-23 17:06:00,36.2,23.7,29.65,North,0,0.0,0.0,60,0.00,,,0.00,WUHU216HW,2013-02-24 00:06:00,
2013-02-23 17:11:00,35.8,23.8,29.65,North,0,0.0,0.0,61,0.00,,,0.00,WUHU216HW,2013-02-24 00:11:00,
2013-02-23 17:16:00,35.3,23.6,29.65,North,0,0.0,0.0,62,0.00,,,0.00,WUHU216HW,2013-02-24 00:16:00,
2013-02-23 17:21:00,35.3,23.6,29.65,North,0,0.0,0.0,62,0.00,,,0.00,WUHU216HW,2013-02-24 00:21:00,
2013-02-23 17:26:00,34.9,23.2,29.65,North,0,0.0,0.0,62,0.00,,,0.00,WUHU216HW,2013-02-24 00:26:00,
2013-02-23 17:31:00,34.6,22.9,29.65,North,0,0.0,0.0,62,0.00,,,0.00,WUHU216HW,2013-02-24 00:31:00,
2013-02-23 17:36:00,34.4,22.7,29.65,North,0,0.0,0.0,62,0.00,,,0.00,WUHU216HW,2013-02-24 00:36:00,
2013-02-23 17:41:00,34.2,22.5,29.65,North,0,0.0,0.0,62,0.00,,,0.00,WUHU216HW,2013-02-24 00:41:00,
2013-02-23 17:46:00,33.8,22.1,29.65,North,0,0.0,0.0,62,0.00,,,0.00,WUHU216HW,2013-02-24 00:46:00,
2013-02-23 17:51:00,33.7,22.3,29.66,North,0,0.0,0.0,63,0.00,,,0.00,WUHU216HW,2013-02-24 00:51:00,
2013-02-23 17:56:00,33.5,22.1,29.66,North,0,0.0,0.0,63,0.00,,,0.00,WUHU216HW,2013-02-24 00:56:00,
2013-02-23 18:06:00,33.3,22.1,29.66,North,0,0.0,0.0,63,0.00,,,0.00,WUHU216HW,2013-02-24 01:06:00,
2013-02-23 18:11:00,33.1,21.9,29.66,North,0,0.0,0.0,63,0.00,,,0.00,WUHU216HW,2013-02-24 01:11:00,
2013-02-23 18:16:00,32.9,22.1,29.66,North,0,0.0,0.0,64,0.00,,,0.00,WUHU216HW,2013-02-24 01:16:00,
2013-02-23 18:21:00,32.9,22.1,29.66,North,0,0.0,0.0,64,0.00,,,0.00,WUHU216HW,2013-02-24 01:21:00,
2013-02-23 18:26:00,32.8,22.2,29.66,North,0,0.0,0.0,65,0.00,,,0.00,WUHU216HW,2013-02-24 01:26:00,
2013-02-23 18:31:00,32.8,22.6,29.67,North,0,0.0,0.0,66,0.00,,,0.00,WUHU216HW,2013-02-24 01:31:00,
2013-02-23 18:36:00,32.8,22.6,29.67,North,0,0.0,0.0,66,0.00,,,0.00,WUHU216HW,2013-02-24 01:36:00,
2013-02-23 18:46:00,32.6,22.4,29.68,North,0,0.0,0.0,66,0.00,,,0.00,WUHU216HW,2013-02-24 01:46:00,
2013-02-23 18:51:00,32.4,22.3,29.68,North,0,0.0,0.0,66,0.00,,,0.00,WUHU216HW,2013-02-24 01:51:00,
2013-02-23 18:56:00,32.4,22.3,29.68,North,0,0.0,0.0,66,0.00,,,0.00,WUHU216HW,2013-02-24 01:56:00,
2013-02-23 19:01:00,32.4,22.0,29.67,North,0,0.0,0.0,65,0.00,,,0.00,WUHU216HW,2013-02-24 02:01:00,
2013-02-23 19:06:00,32.4,21.6,29.68,North,0,0.0,0.0,64,0.00,,,0.00,WUHU216HW,2013-02-24 02:06:00,
2013-02-23 19:11:00,32.4,21.6,29.68,North,0,0.0,0.0,64,0.00,,,0.00,WUHU216HW,2013-02-24 02:11:00,
2013-02-23 19:16:00,32.6,21.3,29.69,North,0,0.0,0.0,63,0.00,,,0.00,WUHU216HW,2013-02-24 02:16:00,
2013-02-23 19:21:00,32.6,21.0,29.69,North,0,0.0,0.0,62,0.00,,,0.00,WUHU216HW,2013-02-24 02:21:00,
2013-02-23 19:26:00,32.6,21.0,29.69,North,0,0.0,0.0,62,0.00,,,0.00,WUHU216HW,2013-02-24 02:26:00,
2013-02-23 19:31:00,32.8,20.8,29.70,North,0,0.0,0.0,61,0.00,,,0.00,WUHU216HW,2013-02-24 02:31:00,
2013-02-23 19:36:00,32.9,20.6,29.70,North,0,0.0,0.0,60,0.00,,,0.00,WUHU216HW,2013-02-24 02:36:00,
2013-02-23 19:41:00,33.1,19.9,29.70,North,0,0.0,0.0,58,0.00,,,0.00,WUHU216HW,2013-02-24 02:41:00,
2013-02-23 19:46:00,33.1,19.9,29.70,North,0,0.0,0.0,58,0.00,,,0.00,WUHU216HW,2013-02-24 02:46:00,
2013-02-23 19:51:00,33.1,19.9,29.70,North,0,0.0,0.0,58,0.00,,,0.00,WUHU216HW,2013-02-24 02:51:00,
2013-02-23 19:56:00,33.3,19.2,29.70,North,0,0.0,0.0,56,0.00,,,0.00,WUHU216HW,2013-02-24 02:56:00,
2013-02-23 20:01:00,33.5,19.4,29.70,North,0,0.0,0.0,56,0.00,,,0.00,WUHU216HW,2013-02-24 03:01:00,
2013-02-23 20:06:00,33.8,18.8,29.70,North,0,0.0,0.0,54,0.00,,,0.00,WUHU216HW,2013-02-24 03:06:00,
2013-02-23 20:11:00,33.8,19.3,29.70,North,0,0.0,0.0,55,0.00,,,0.00,WUHU216HW,2013-02-24 03:11:00,
2013-02-23 20:16:00,33.5,19.8,29.69,North,0,0.0,0.0,57,0.00,,,0.00,WUHU216HW,2013-02-24 03:16:00,
2013-02-23 20:21:00,33.5,20.7,29.69,North,0,0.0,0.0,59,0.00,,,0.00,WUHU216HW,2013-02-24 03:21:00,
2013-02-23 20:26:00,33.3,21.7,29.69,North,0,0.0,0.0,62,0.00,,,0.00,WUHU216HW,2013-02-24 03:26:00,
2013-02-23 20:31:00,33.1,23.0,29.69,North,0,0.0,0.0,66,0.00,,,0.00,WUHU216HW,2013-02-24 03:31:00,
2013-02-23 20:36:00,32.8,23.7,29.69,North,0,0.0,0.0,69,0.00,,,0.00,WUHU216HW,2013-02-24 03:36:00,
2013-02-23 20:41:00,32.6,23.1,29.69,North,0,0.0,0.0,68,0.00,,,0.00,WUHU216HW,2013-02-24 03:41:00,
2013-02-23 20:46:00,32.4,23.4,29.69,North,0,0.0,0.0,69,0.00,,,0.00,WUHU216HW,2013-02-24 03:46:00,
2013-02-23 20:55:00,32.2,23.2,29.70,North,0,0.0,0.0,69,0.00,,,0.00,WUHU216HW,2013-02-24 03:55:00,
2013-02-23 21:00:00,32.2,22.5,29.70,North,0,0.0,0.0,67,0.00,,,0.00,WUHU216HW,2013-02-24 04:00:00,
2013-02-23 21:05:00,32.2,22.9,29.70,North,0,0.0,0.0,68,0.00,,,0.00,WUHU216HW,2013-02-24 04:05:00,
2013-02-23 21:10:00,32.2,22.5,29.71,North,0,0.0,0.0,67,0.00,,,0.00,WUHU216HW,2013-02-24 04:10:00,
2013-02-23 21:15:00,32.2,22.5,29.71,North,0,0.0,0.0,67,0.00,,,0.00,WUHU216HW,2013-02-24 04:15:00,
2013-02-23 21:20:00,32.2,22.2,29.71,North,0,0.0,0.0,66,0.00,,,0.00,WUHU216HW,2013-02-24 04:20:00,
2013-02-23 21:25:00,32.2,22.2,29.71,North,0,0.0,0.0,66,0.00,,,0.00,WUHU216HW,2013-02-24 04:25:00,
2013-02-23 21:30:00,32.2,22.2,29.71,North,0,0.0,0.0,66,0.00,,,0.00,WUHU216HW,2013-02-24 04:30:00,
2013-02-23 21:35:00,32.0,22.0,29.72,North,0,0.0,0.0,66,0.00,,,0.00,WUHU216HW,2013-02-24 04:35:00,
2013-02-23 21:40:00,32.0,22.0,29.72,North,0,0.0,0.0,66,0.00,,,0.00,WUHU216HW,2013-02-24 04:40:00,
2013-02-23 21:45:00,32.0,22.0,29.73,North,0,0.0,0.0,66,0.00,,,0.00,WUHU216HW,2013-02-24 04:45:00,
2013-02-23 21:55:00,31.7,23.0,29.73,North,0,0.0,0.0,70,0.00,,,0.00,WUHU216HW,2013-02-24 04:55:00,
2013-02-23 22:00:00,31.3,24.3,29.73,North,0,0.0,0.0,75,0.00,,,0.00,WUHU216HW,2013-02-24 05:00:00,
2013-02-23 22:05:00,30.8,24.1,29.74,North,0,0.0,0.0,76,0.00,,,0.00,WUHU216HW,2013-02-24 05:05:00,
2013-02-23 22:10:00,30.2,24.5,29.73,North,0,0.0,0.0,79,0.00,,,0.00,WUHU216HW,2013-02-24 05:10:00,
2013-02-23 22:20:00,29.7,25.7,29.73,North,0,0.0,0.0,85,0.00,,,0.00,WUHU216HW,2013-02-24 05:20:00,
2013-02-23 22:25:00,29.3,25.7,29.73,North,0,0.0,0.0,86,0.00,,,0.00,WUHU216HW,2013-02-24 05:25:00,
2013-02-23 22:30:00,29.2,25.7,29.73,North,0,0.0,0.0,87,0.00,,,0.00,WUHU216HW,2013-02-24 05:30:00,
2013-02-23 22:35:00,29.0,25.6,29.73,North,0,0.0,0.0,87,0.00,,,0.00,WUHU216HW,2013-02-24 05:35:00,
2013-02-23 22:40:00,28.6,25.6,29.74,North,0,0.0,0.0,88,0.00,,,0.00,WUHU216HW,2013-02-24 05:40:00,
2013-02-23 22:45:00,28.6,25.6,29.74,North,0,0.0,0.0,88,0.00,,,0.00,WUHU216HW,2013-02-24 05:45:00,
2013-02-23 22:50:00,28.6,25.8,29.73,North,0,0.0,0.0,89,0.00,,,0.00,WUHU216HW,2013-02-24 05:50:00,
2013-02-23 22:55:00,28.6,25.8,29.73,North,0,0.0,0.0,89,0.00,,,0.00,WUHU216HW,2013-02-24 05:55:00,
2013-02-23 23:00:00,28.6,25.8,29.74,North,0,0.0,0.0,89,0.00,,,0.00,WUHU216HW,2013-02-24 06:00:00,
2013-02-23 23:05:00,28.4,25.7,29.73,North,0,0.0,0.0,89,0.00,,,0.00,WUHU216HW,2013-02-24 06:05:00,
2013-02-23 23:10:00,28.4,25.7,29.73,North,0,0.0,0.0,89,0.00,,,0.00,WUHU216HW,2013-02-24 06:10:00,
2013-02-23 23:15:00,28.4,25.9,29.74,North,0,0.0,0.0,90,0.00,,,0.00,WUHU216HW,2013-02-24 06:15:00,
2013-02-23 23:20:00,28.4,25.9,29.74,North,0,0.0,0.0,90,0.00,,,0.00,WUHU216HW,2013-02-24 06:20:00,
2013-02-23 23:25:00,28.4,25.9,29.74,North,0,0.0,0.0,90,0.00,,,0.00,WUHU216HW,2013-02-24 06:25:00,
2013-02-23 23:30:00,28.4,26.2,29.74,North,0,0.0,0.0,91,0.00,,,0.00,WUHU216HW,2013-02-24 06:30:00,
2013-02-23 23:35:00,28.4,26.2,29.74,North,0,0.0,0.0,91,0.00,,,0.00,WUHU216HW,2013-02-24 06:35:00,
2013-02-23 23:40:00,28.4,26.2,29.74,North,0,0.0,0.0,91,0.00,,,0.00,WUHU216HW,2013-02-24 06:40:00,
2013-02-23 23:45:00,28.3,26.0,29.74,North,0,0.0,0.0,91,0.00,,,0.00,WUHU216HW,2013-02-24 06:45:00,
2013-02-23 23:50:00,28.3,26.0,29.74,North,0,0.0,0.0,91,0.00,,,0.00,WUHU216HW,2013-02-24 06:50:00,
2013-02-23 23:55:00,28.1,25.8,29.74,North,0,0.0,0.0,91,0.00,,,0.00,WUHU216HW,2013-02-24 06:55:00,